Volver al catálogo

STARLINK-38119

ActivoComunicacionesVLEO
NORAD 100009·PAYLOAD·🇺🇸 United States

Lanzado Jul 14, 2026 desde Vandenberg Space Force Base

Loading…

Próximos Pases (próximas 24 horas)

TLE

ActualizadoSource: Space-Track

Época: Sep 14, 2026, 07:35 UTC

1 A0009U 26160J   26257.31632601  .00181531  00000-0  10649-2 0  9999
2 A0009  70.0011 212.6121 0003168 271.1926  88.8910 15.77607405 11010

Sigue STARLINK-38119 en tiempo real con AllMySat

Download on the App Store